YUZGU 8

Last updated on Sat Jan 28 2023 00:02:07 GMT+0000 (Coordinated Universal Time)

1 53306U 98067TR 23025.79167360 .07011754 12129-4 11372-2 0 9998 2 53306 51.6063 292.9414 0006142 218.6650 243.8329 16.32721285 29461

Satellite not in orbit